Terminal Aerodrome Forecast
Issued by NWS

Home | Current Version | Previous Version | Text Only | Print | Product List | Glossary Off
Versions: 1 2 3 4 5 6 7 8 9 10 11 12 13 14 15 16 17 18 19 20 21 22 23 24 25 26 27 28 29 30 31 32 33 34 35 36 37 38 39 40 41 42 43 44 45 46 47 48 49 50

000
FTUS43 KLOT 112200 AAB
TAFGYY
TAF AMD
KGYY 112210Z 1122/1218 16009KT P6SM VCSH FEW050 BKN080
      TEMPO 1122/1202 -RA
     FM120500 17006KT P6SM VCSH SCT050 OVC080 PROB30 1210/1213 -TSRA
      BKN040CB
     FM121300 19010KT P6SM OVC020=

USA.gov is the U.S. government's official web portal to all federal, state and local government web resources and services.